| time (UTC) | temp F | wind direction | speed knots | gust knots | rain 1hr in | rain 24hr in | rain mn in | humidity % | barometer mb |
| 20260509121518 | 41 | 138 | 0.0 | 1.7 | 0.00 | 0.00 | 0.00 | 61 | 1004.0 |
| 20260509120014 | 41 | 138 | 0.0 | 0.0 | 0.00 | 0.00 | 0.00 | 62 | 1003.6 |
| 20260509114502 | 41 | 138 | 0.0 | 0.0 | 0.00 | 0.00 | 0.00 | 62 | 1003.6 |
| 20260509113051 | 41 | 138 | 0.0 | 0.0 | 0.00 | 0.00 | 0.00 | 63 | 1003.6 |
| 20260509111602 | 41 | 138 | 0.0 | 0.0 | 0.00 | 0.00 | 0.00 | 63 | 1003.7 |
| 20260509110111 | 40 | 138 | 0.0 | 0.0 | 0.00 | 0.00 | 0.00 | 63 | 1003.5 |
| 20260509104616 | 40 | 138 | 0.0 | 0.0 | 0.00 | 0.00 | 0.00 | 65 | 1003.6 |
| 20260509103115 | 40 | 138 | 0.0 | 0.0 | 0.00 | 0.00 | 0.00 | 65 | 1003.6 |
| 20260509101629 | 40 | 138 | 0.0 | 0.0 | 0.00 | 0.00 | 0.00 | 66 | 1003.5 |
| 20260509100122 | 39 | 138 | 0.0 | 0.0 | 0.00 | 0.00 | 0.00 | 67 | 1003.5 |
| 20260509094629 | 39 | 138 | 0.0 | 0.0 | 0.00 | 0.00 | 0.00 | 68 | 1003.3 |
| 20260509093051 | 38 | 138 | 0.0 | 0.0 | 0.00 | 0.00 | 0.00 | 72 | 1003.4 |
| 20260509091605 | 38 | 138 | 0.0 | 0.0 | 0.00 | 0.00 | 0.00 | 71 | 1003.5 |
| 20260509090113 | 39 | 138 | 0.0 | 0.0 | 0.00 | 0.00 | 0.00 | 69 | 1003.7 |
| 20260509084625 | 40 | 138 | 0.0 | 0.0 | 0.00 | 0.00 | 0.00 | 69 | 1003.7 |
| 20260509083122 | 40 | 138 | 0.0 | 0.0 | 0.00 | 0.00 | 0.00 | 69 | 1003.9 |
| 20260509081622 | 40 | 138 | 0.0 | 0.0 | 0.00 | 0.00 | 0.00 | 69 | 1004.1 |
| 20260509080116 | 41 | 138 | 0.0 | 0.0 | 0.00 | 0.00 | 0.00 | 68 | 1004.1 |
| 20260509074614 | 40 | 138 | 0.0 | 2.6 | 0.00 | 0.00 | 0.00 | 69 | 1004.1 |
| 20260509073112 | 40 | 213 | 0.0 | 0.0 | 0.00 | 0.00 | 0.00 | 69 | 1004.5 |
| 20260509071604 | 41 | 213 | 0.0 | 0.0 | 0.00 | 0.00 | 0.00 | 67 | 1004.7 |
| 20260509070106 | 41 | 213 | 0.0 | 1.7 | 0.00 | 0.00 | 0.00 | 67 | 1004.7 |
| 20260509064605 | 42 | 213 | 0.9 | 2.6 | 0.00 | 0.00 | 0.00 | 67 | 1005.0 |
| 20260509063103 | 43 | 213 | 0.0 | 2.6 | 0.00 | 0.00 | 0.00 | 64 | 1005.0 |
| 20260509061558 | 44 | 163 | 0.9 | 4.3 | 0.00 | 0.00 | 0.00 | 60 | 1005.0 |
| 20260509060118 | 45 | 160 | 3.5 | 8.7 | 0.00 | 0.00 | 0.00 | 60 | 1005.1 |
| 20260509054558 | 45 | 241 | 0.9 | 6.1 | 0.00 | 0.00 | 0.00 | 61 | 1005.3 |
| 20260509053118 | 45 | 165 | 2.6 | 7.0 | 0.00 | 0.00 | 0.00 | 58 | 1005.4 |
| 20260509051626 | 46 | 176 | 2.6 | 8.7 | 0.00 | 0.00 | 0.00 | 58 | 1005.4 |
| 20260509050045 | 46 | 134 | 3.5 | 10.4 | 0.00 | 0.00 | 0.00 | 59 | 1005.5 |
| 20260509044552 | 46 | 208 | 2.6 | 7.8 | 0.00 | 0.00 | 0.00 | 59 | 1005.5 |
| 20260509043101 | 46 | 159 | 0.9 | 6.1 | 0.00 | 0.00 | 0.00 | 59 | 1005.7 |
| 20260509041606 | 46 | 140 | 2.6 | 6.1 | 0.00 | 0.00 | 0.00 | 59 | 1005.6 |
| 20260509040118 | 46 | 170 | 1.7 | 6.1 | 0.00 | 0.00 | 0.00 | 60 | 1005.4 |
| 20260509034616 | 47 | 157 | 0.9 | 4.3 | 0.00 | 0.00 | 0.00 | 59 | 1005.4 |
| 20260509033135 | 48 | 146 | 0.9 | 7.0 | 0.00 | 0.00 | 0.00 | 57 | 1005.0 |
| 20260509031601 | 49 | 144 | 3.5 | 7.8 | 0.00 | 0.00 | 0.00 | 54 | 1004.9 |
| 20260509030100 | 49 | 202 | 1.7 | 3.5 | 0.00 | 0.00 | 0.00 | 52 | 1004.7 |
| 20260509024606 | 50 | 148 | 1.7 | 6.1 | 0.00 | 0.00 | 0.00 | 53 | 1004.3 |
| 20260509023041 | 50 | 175 | 1.7 | 7.0 | 0.00 | 0.00 | 0.00 | 49 | 1004.0 |
| 20260509021613 | 50 | 138 | 5.2 | 12.2 | 0.00 | 0.00 | 0.00 | 50 | 1004.0 |
| 20260509020120 | 50 | 128 | 7.8 | 13.0 | 0.00 | 0.00 | 0.00 | 52 | 1003.7 |
| 20260509014607 | 50 | 129 | 7.8 | 17.4 | 0.00 | 0.00 | 0.00 | 53 | 1003.7 |
| 20260509013123 | 50 | 106 | 6.1 | 10.4 | 0.00 | 0.00 | 0.00 | 53 | 1003.8 |
| 20260509011606 | 51 | 140 | 5.2 | 9.6 | 0.00 | 0.00 | 0.00 | 51 | 1003.9 |
| 20260509004605 | 52 | 113 | 4.3 | 10.4 | 0.00 | 0.00 | 0.00 | 50 | 1003.3 |
| 20260509003110 | 53 | 134 | 6.1 | 13.9 | 0.00 | 0.00 | 0.00 | 49 | 1003.3 |
| 20260509001552 | 54 | 134 | 4.3 | 12.2 | 0.00 | 0.00 | 0.00 | 47 | 1003.3 |
| 20260509000044 | 56 | 159 | 5.2 | 10.4 | 0.00 | 0.00 | 0.00 | 45 | 1003.3 |
| 20260508234550 | 56 | 105 | 5.2 | 10.4 | 0.00 | 0.00 | 0.00 | 45 | 1003.0 |
| 20260508233104 | 56 | 152 | 5.2 | 10.4 | 0.00 | 0.00 | 0.00 | 45 | 1003.1 |
| 20260508231603 | 57 | 145 | 7.0 | 13.0 | 0.00 | 0.00 | 0.00 | 43 | 1003.0 |
| 20260508230117 | 58 | 101 | 6.1 | 11.3 | 0.00 | 0.00 | 0.00 | 42 | 1003.2 |
| 20260508224621 | 59 | 184 | 3.5 | 9.6 | 0.00 | 0.00 | 0.00 | 39 | 1003.1 |
| 20260508223012 | 60 | 217 | 3.5 | 10.4 | 0.00 | 0.00 | 0.00 | 37 | 1003.4 |
| 20260508221513 | 61 | 156 | 3.5 | 7.8 | 0.00 | 0.00 | 0.00 | 36 | 1003.5 |
| 20260508220027 | 61 | 170 | 4.3 | 8.7 | 0.00 | 0.00 | 0.00 | 36 | 1003.6 |
| 20260508214523 | 61 | 138 | 2.6 | 7.8 | 0.00 | 0.00 | 0.00 | 34 | 1003.7 |
| 20260508213028 | 61 | 217 | 1.7 | 6.1 | 0.00 | 0.00 | 0.00 | 39 | 1004.0 |
| 20260508211550 | 62 | 266 | 0.9 | 6.1 | 0.00 | 0.00 | 0.00 | 36 | 1004.2 |
| 20260508210042 | 62 | 157 | 2.6 | 7.0 | 0.00 | 0.00 | 0.00 | 36 | 1004.1 |
| 20260508204527 | 61 | 281 | 2.6 | 7.0 | 0.00 | 0.00 | 0.00 | 37 | 1004.4 |
| 20260508203032 | 61 | 276 | 1.7 | 7.8 | 0.00 | 0.00 | 0.00 | 31 | 1004.8 |
| 20260508201505 | 60 | 280 | 1.7 | 7.0 | 0.00 | 0.00 | 0.00 | 30 | 1004.9 |
| 20260508200025 | 60 | 244 | 3.5 | 7.8 | 0.00 | 0.00 | 0.00 | 28 | 1005.2 |
| 20260508194617 | 57 | 67 | 0.9 | 2.6 | 0.00 | 0.00 | 0.00 | 32 | 1005.2 |
| 20260508193122 | 57 | 146 | 1.7 | 6.1 | 0.00 | 0.00 | 0.00 | 30 | 1005.6 |
| 20260508191618 | 58 | 134 | 2.6 | 9.6 | 0.00 | 0.00 | 0.00 | 29 | 1005.7 |
| 20260508190011 | 57 | 234 | 1.7 | 10.4 | 0.00 | 0.00 | 0.00 | 41 | 1005.8 |
| 20260508184625 | 58 | 319 | 3.5 | 10.4 | 0.00 | 0.00 | 0.00 | 31 | 1005.9 |
| 20260508183016 | 58 | 311 | 6.1 | 13.9 | 0.00 | 0.00 | 0.00 | 25 | 1006.0 |
| 20260508181515 | 57 | 309 | 4.3 | 10.4 | 0.00 | 0.00 | 0.00 | 27 | 1006.4 |
| 20260508180040 | 56 | 282 | 2.6 | 9.6 | 0.00 | 0.00 | 0.00 | 29 | 1006.8 |
| 20260508174521 | 55 | 290 | 1.7 | 6.1 | 0.00 | 0.00 | 0.00 | 30 | 1006.8 |
| 20260508173041 | 55 | 297 | 3.5 | 10.4 | 0.00 | 0.00 | 0.00 | 30 | 1006.9 |
| 20260508171619 | 54 | 258 | 0.9 | 6.1 | 0.00 | 0.00 | 0.00 | 34 | 1007.0 |
| 20260508170109 | 54 | 292 | 3.5 | 7.0 | 0.00 | 0.00 | 0.00 | 32 | 1007.2 |
| 20260508164616 | 53 | 281 | 2.6 | 7.8 | 0.00 | 0.01 | 0.00 | 35 | 1007.5 |
| 20260508163124 | 52 | 298 | 4.3 | 8.7 | 0.00 | 0.01 | 0.00 | 35 | 1007.6 |
| 20260508161604 | 51 | 238 | 2.6 | 7.0 | 0.00 | 0.01 | 0.00 | 40 | 1007.6 |
| 20260508160104 | 49 | 249 | 0.9 | 7.0 | 0.00 | 0.01 | 0.00 | 42 | 1007.9 |
| 20260508154607 | 49 | 275 | 1.7 | 7.0 | 0.00 | 0.02 | 0.00 | 43 | 1007.9 |
| 20260508153110 | 49 | 80 | 0.9 | 7.0 | 0.00 | 0.02 | 0.00 | 43 | 1007.8 |
| 20260508151618 | 48 | 296 | 2.6 | 7.8 | 0.00 | 0.02 | 0.00 | 43 | 1007.9 |
| 20260508150106 | 47 | 295 | 3.5 | 7.8 | 0.00 | 0.02 | 0.00 | 46 | 1007.9 |
| 20260508144608 | 46 | 260 | 2.6 | 7.8 | 0.00 | 0.02 | 0.00 | 47 | 1008.0 |
| 20260508143121 | 45 | 342 | 2.6 | 5.2 | 0.00 | 0.02 | 0.00 | 48 | 1008.0 |
| 20260508141510 | 44 | 335 | 1.7 | 7.8 | 0.00 | 0.02 | 0.00 | 51 | 1008.1 |
| 20260508140124 | 44 | 252 | 0.9 | 2.6 | 0.00 | 0.02 | 0.00 | 55 | 1008.1 |
| 20260508134622 | 44 | 305 | 1.7 | 4.3 | 0.00 | 0.02 | 0.00 | 54 | 1008.0 |
| 20260508133017 | 43 | 348 | 0.9 | 3.5 | 0.00 | 0.02 | 0.00 | 57 | 1008.1 |
| 20260508131544 | 41 | 61 | 0.0 | 0.0 | 0.00 | 0.02 | 0.00 | 61 | 1008.2 |
| 20260508130106 | 39 | 86 | 0.0 | 0.0 | 0.00 | 0.02 | 0.00 | 66 | 1008.3 |
| 20260508124625 | 37 | 86 | 0.0 | 0.0 | 0.00 | 0.02 | 0.00 | 70 | 1008.2 |
| 20260508123109 | 37 | 86 | 0.0 | 0.9 | 0.00 | 0.02 | 0.00 | 69 | 1008.2 |